Tracking 32523 objects as of 13-Dec-2025
HD Live streaming from Space Station
objects crossing your sky now

NOAA 16 DEB

Track NOAA 16 DEB now!
10-day predictions


NORAD ID: 41091
Int'l Code: 2000-055BA
Perigee: 757.9 km
Apogee: 812.4 km
Inclination: 99.0 °
Period: 100.4 minutes
Semi major axis: 7156 km
RCS: Unknown
Launch date: September 21, 2000
Source: United States (US)
Launch site: AIR FORCE WESTERN TEST RANGE (AFWTR)

Note: This is SATELLITE DEBRIS
Your satellite tracking list
Your tracking list is empty




NASA's NSSDC Master Catalog

Two Line Element Set (TLE):
1 41091U 00055BA  25346.78815981  .00012538  00000-0  44534-2 0  9993
2 41091  98.9650 104.3228 0038114 357.4284   2.6697 14.34114572516738
Source of the keplerian elements: AFSPC